This demonstration page uses our WeatherBlox Daily Observations layout. Learn more.

Left ArrowRight Arrow

38.88101, -77.10428

Hourly Observations for November 10, 2018

Temp ( °F °C ) Dew Point ( °F °C ) Humidity (%) Winds ( mph kmh ) Pressure ( in mb ) Visibility ( mi km ) Precip ( " mm )
12:52 am 00:52 Cloudy 49 9.4 43 6.1 80 80 NW 7 11 29.93 1014 10 16.0934 0 0
1:52 am 01:52 Mostly Cloudy 47 8.3 41 5 80 80 NNW 7 11 29.94 1014 10 16.0934 0 0
2:52 am 02:52 Mostly Cloudy 47 8.3 38 3.3 71 71 NW 7 11 29.95 1014 10 16.0934 0 0
3:52 am 03:52 Mostly Cloudy 46 7.8 37 2.8 71 71 Calm 29.96 1015 10 16.0934 0 0
4:52 am 04:52 Mostly Cloudy 46 7.8 37 2.8 71 71 WNW 7 11 30 1016 10 16.0934 0 0
5:52 am 05:52 Mostly Cloudy 45 7.2 35 1.7 68 68 WNW 12 19 30.03 1017 10 16.0934 0 0
6:52 am 06:52 Mostly Cloudy 44 6.7 31 -0.6 60 60 NW 16 26 30.05 1018 10 16.0934 0 0
7:52 am 07:52 Mostly Sunny 44 6.7 24 -4.4 45 45 NW 17 28 30.09 1019 10 16.0934 0 0
8:52 am 08:52 Mostly Sunny 43 6.1 17 -8.3 35 35 NW 23 37 30.14 1021 10 16.0934 0 0
9:52 am 09:52 Mostly Sunny 44 6.7 16 -8.9 32 32 WNW 20 31 30.15 1021 10 16.0934 0 0
10:52 am 10:52 Mostly Sunny 45 7.2 17 -8.3 33 33 NW 23 37 30.17 1022 10 16.0934 0 0
11:52 am 11:52 Mostly Sunny 45 7.2 17 -8.3 33 33 WNW 22 35 30.17 1022 10 16.0934 0 0
12:52 pm 12:52 Mostly Sunny 46 7.8 19 -7.2 34 34 NW 20 31 30.18 1022 10 16.0934 0 0
1:52 pm 13:52 Mostly Sunny 45 7.2 17 -8.3 33 33 NW 30 48 30.2 1023 10 16.0934 0 0
2:52 pm 14:52 Sunny 45 7.2 15 -9.4 30 30 NW 18 30 30.22 1024 10 16.0934 0 0
3:52 pm 15:52 Sunny 44 6.7 12 -11.1 27 27 WNW 14 22 30.25 1024 10 16.0934 0 0
4:52 pm 16:52 Sunny 42 5.6 11 -11.7 28 28 NW 15 24 30.27 1025 10 16.0934 0 0
5:52 pm 17:52 Clear 40 4.4 13 -10.6 33 33 NNW 12 19 30.29 1026 10 16.0934 0 0
6:52 pm 18:52 Clear 38 3.3 14 -10 37 37 NNW 10 17 30.32 1027 10 16.0934 0 0
7:52 pm 19:52 Clear 37 2.8 15 -9.4 41 41 NW 7 11 30.33 1027 10 16.0934 0 0
8:52 pm 20:52 Clear 36 2.2 16 -8.9 44 44 WNW 7 11 30.35 1028 10 16.0934 0 0
9:52 pm 21:52 Clear 36 2.2 16 -8.9 44 44 VRB 5 7 30.37 1028 10 16.0934 0 0
10:52 pm 22:52 Clear 36 2.2 17 -8.3 46 46 WNW 6 9 30.37 1029 10 16.0934 0 0
11:52 pm 23:52 Clear 33 0.6 19 -7.2 56 56 SW 3 6 30.39 1029 10 16.0934 0 0

Powered by AerisWeather